#timestamp,LO_Frequency,Hit,StdDev 
1709074815.1,286046998.4,N
1709074835.9,286046996.7,N
1709074855.7,286046997.7,N
1709074875.6,286046996.5,N
1709074895.4,286046998.8,N
1709074915.2,286046999.0,N
1709074935.1,286046997.4,N
1709074936.0,286046997.4,N
1709074955.8,286046997.9,N
1709074975.7,286046996.7,N
1709074995.5,286046996.7,N
1709075015.3,286046997.0,N
1709075035.2,286046996.8,N
1709075055.9,286046998.0,N
1709075075.7,286046995.4,N
1709075095.6,286046994.9,Y
1709075115.4,286046998.1,P
1709075135.3,286046998.7,P
1709075155.1,286046997.4,P
1709075156.0,286046997.4,Y
1709075175.8,286047000.5,P
1709075195.7,286047001.8,N
1709075215.5,286047004.4,N
1709075235.4,286047002.3,N
1709075255.2,286047002.4,N
1709075275.0,286047002.6,N
1709075275.9,286047002.6,N
1709075295.8,286047003.9,N
1709075315.6,286047001.7,N
1709075335.4,286047001.3,N
1709075355.3,286047004.2,N
1709075375.1,286047001.6,N
1709075395.9,286047002.1,N
1709075415.7,286047002.1,N
1709075435.5,286047004.2,N
1709075455.4,286047001.8,N
1709075475.2,286047001.5,N
1709075495.0,286047004.0,N
1709075495.9,286047004.0,N
1709075515.8,286047001.8,N
1709075535.6,286047002.4,N
1709075555.5,286047001.5,N
1709075575.3,286047002.7,N
1709075595.1,286047002.3,N
1709075615.9,286047002.0,N
1709075635.7,286047002.8,N
1709075655.5,286047000.1,N
1709075675.4,286047000.3,N
1709075695.2,286046998.5,N
1709075715.1,286047000.9,N
1709075716.0,286047000.9,N
1709075735.8,286047002.4,N
1709075755.6,286047002.7,N
1709075775.5,286047002.5,N
1709075795.3,286047001.4,N
1709075815.2,286047001.3,N
1709075835.9,286047000.9,N
1709075855.7,286047000.4,N
1709075875.6,286047000.9,N
1709075895.4,286047001.1,N
1709075915.2,286047001.2,N
1709075935.1,286046998.1,N
1709075936.0,286046998.1,N
1709075955.8,286047000.4,N
1709075975.7,286047000.1,N
1709075995.5,286047002.7,N
1709076015.3,286047000.4,N
1709076035.2,286046998.4,N
1709076055.0,286046998.2,N
1709076055.9,286046998.2,N
1709076075.7,286047000.3,N
1709076095.6,286046999.9,N
1709076115.4,286047000.5,N
1709076135.3,286047000.4,N
1709076155.1,286047001.0,N
1709076156.0,286047001.0,N
1709076175.8,286047000.5,N
1709076195.7,286047000.4,N
1709076215.5,286046998.5,N
1709076235.3,286046998.6,N
1709076255.2,286046998.7,N
1709076275.0,286047000.3,N
1709076275.9,286047000.3,N
1709076295.8,286047000.5,N
1709076315.6,286047000.2,N
1709076335.4,286047000.2,N
1709076355.3,286047002.2,N
1709076375.1,286047000.1,N
1709076395.9,286047000.0,N
1709076415.7,286047002.1,N
1709076435.5,286047002.2,N
1709076455.4,286047002.3,N
1709076475.2,286047000.2,N
1709076495.0,286047000.3,N
1709076495.9,286047000.3,N
1709076515.8,286047002.3,N
1709076535.6,286047002.3,N
1709076555.5,286047004.2,Y
1709076575.3,286047001.6,P
1709076595.1,286047002.3,P
1709076615.9,286047003.9,P
1709076635.7,286047004.0,Y
1709076655.5,286047002.8,P
1709076675.4,286046999.7,N
1709076695.2,286046998.6,N
1709076715.1,286046999.4,N
1709076716.0,286046999.4,N
1709076735.8,286046998.8,N
1709076755.6,286046999.2,N
1709076775.5,286046999.2,N
1709076795.3,286046996.7,N
1709076815.1,286046996.7,N
1709076835.9,286046996.5,N
1709076855.7,286046999.4,N
1709076875.6,286046999.3,N
1709076895.4,286046999.1,N
1709076915.2,286046996.7,N
1709076935.1,286046999.1,N
1709076936.0,286046999.1,N
1709076955.8,286046997.6,N
1709076975.7,286046997.8,N
1709076995.5,286046997.5,N
1709077015.3,286046997.9,N
1709077035.2,286046997.2,N
1709077055.9,286046999.6,N
1709077075.7,286046996.7,N
1709077095.6,286046997.7,N
1709077115.4,286046997.3,N
1709077135.3,286046997.5,N
1709077155.1,286046995.5,Y
1709077156.0,286046995.5,P
1709077175.8,286046996.8,N
1709077195.7,286046999.6,N
1709077215.5,286047000.8,N
1709077235.3,286047000.8,N
1709077255.2,286047001.0,N
1709077275.0,286047000.6,N
1709077275.9,286047000.6,N
1709077295.8,286046998.7,N
1709077315.6,286046999.6,N
1709077335.4,286047000.3,N
1709077355.3,286047000.7,N
1709077375.1,286047000.8,N
1709077395.8,286047000.6,N
1709077415.7,286047001.2,N
1709077435.5,286047001.1,N
1709077455.4,286046999.8,N
1709077475.2,286047002.7,N
1709077495.0,286046999.8,N
1709077495.9,286046999.8,N
1709077515.8,286047000.7,N
1709077535.6,286046998.4,N
1709077555.4,286046998.6,N
1709077575.3,286046999.3,N
1709077595.1,286047001.2,N
1709077615.9,286047000.8,N
1709077635.7,286047000.7,N
1709077655.5,286047001.2,N
1709077675.4,286046999.3,N
1709077695.2,286046999.5,N
1709077715.0,286046998.6,N
1709077715.9,286046998.6,N
1709077735.8,286046999.3,N
1709077755.6,286046996.6,Y
1709077775.5,286046999.1,P
1709077795.3,286046998.3,P
1709077815.1,286046999.0,N
1709077835.9,286046999.4,N
1709077855.7,286046999.1,N
1709077875.5,286046998.9,N
1709077895.4,286046999.0,N
1709077915.2,286046999.0,N
1709077935.1,286046996.7,Y
1709077936.0,286046996.7,P
1709077955.8,286046996.5,N
1709077975.6,286047000.5,N
1709077995.5,286046999.7,N
1709078015.3,286047001.2,N
1709078035.2,286047001.0,N
1709078055.9,286046998.2,N
1709078075.7,286046998.8,N
1709078095.6,286047000.6,N
1709078115.4,286046998.5,N
1709078135.2,286047000.3,N
1709078155.1,286047000.6,N
1709078156.0,286047000.6,N
1709078175.8,286047000.8,N
1709078195.7,286046999.6,N
1709078215.5,286046998.2,N
1709078235.3,286046998.3,N
1709078255.2,286047000.3,N
1709078275.9,286047000.1,N
1709078295.7,286047000.9,N
1709078315.6,286047000.7,N
1709078335.4,286047000.9,N
1709078355.3,286046998.7,N
1709078375.1,286046999.2,N
1709078376.0,286046999.2,N
1709078395.8,286047001.1,N
